Back to catalog

CZ-3A DEB

LostGTO
NORAD 36967·DEBRIS·🇨🇳 China

Launched Feb 2, 2007 from Xichang Satellite Launch Center

Loading…

TLE

StaleSource: Space-Track

Epoch: Jun 19, 2026, 20:31 UTC

1 36967U 07003AD  26170.85549542  .00000056  00000-0  38974-1 0  9992
2 36967  27.4997  51.4409 7384934 203.8264  87.3665  1.84749656  3465

Track CZ-3A DEB in real time with AllMySat

Download on the App Store